Location: Bad Salzschlirf
(50.3750°N, 9.3000°E)
Time: 05:57:07
(UTC+01:00)

ISS - Pass Details

Date: 07 December 2019
Orbit: 411 x 421 km, 51.6° (Epoch: 15 December)

Event Time Altitude Azimuth Distance (km) Brightness Sun altitude
Rises 19:12:09 0° 284° (WNW) 2,361 1.2 -26.3°
Reaches altitude 10° 19:14:38 10° 266° (W) 1,497 0.0 -26.7°
Enters shadow 19:16:40 19° 229° (SW) 1,079 -1.2 -27.0°
